[[{"header":{"parameterUnit":"m.s-1","parameterCategory":1,"la1":30.2992,"la2":30.254,"lo1":-89.0895,"lo2":-89.0443,"dy":0.0025,"dx":0.0025,"nx":19,"ny":19,"refTime":"2026-04-24T09:00:00:Z","depth":0,"parameterNumber":2,"parameterNumberName":"U-component_of_WINDS"},"data":[0,0,0,-1.6695,-1.6696,-1.6783,-1.6783,-1.689,-1.6891,0,0,0,0,0,0,0,0,0,0,0,-1.6666,-1.6667,-1.6695,-1.6697,-1.6783,-1.6783,-1.689,-1.6891,0,0,0,0,0,0,0,0,0,0,0,-1.6666,-1.6667,-1.6667,-1.6697,-1.6783,-1.6783,-1.689,-1.6826,0,0,0,0,0,0,0,0,0,0,-1.6743,-1.6714,-1.6667,-1.6667,-1.6697,-1.6783,-1.6783,-1.6823,-1.683,-1.685,0,-1.6865,0,-1.688,-1.6898,-1.6899,0,0,0,-1.6699,-1.6708,-1.6734,-1.6668,-1.6698,-1.6782,-1.6745,-1.6827,-1.6835,-1.6859,-1.6867,-1.6871,-1.6882,-1.6899,-1.6899,-1.7,-1.7,0,0,-1.6694,-1.6681,-1.6728,-1.6739,-1.6724,-1.6742,-1.6747,-1.6832,-1.684,-1.6867,-1.6873,-1.6883,-1.69,-1.69,-1.6999,-1.7,0,0,0,-1.6679,-1.6677,-1.6701,-1.6734,-1.675,-1.6744,-1.6751,-1.6836,-1.6845,-1.6875,-1.6885,-1.69,-1.6901,-1.6999,-1.7,-1.7003,0,0,0,-1.6676,-1.6668,-1.6699,-1.6691,-1.6748,-1.6794,-1.6753,-1.6839,-1.6849,-1.6884,-1.69,-1.6902,-1.6999,-1.6999,-1.7002,-1.7007,0,0,0,-1.6662,-1.6666,-1.6678,-1.669,-1.6726,-1.6793,-1.6807,-1.6842,-1.6855,-1.6899,-1.6903,-1.6999,-1.6999,-1.7001,-1.7005,-1.7029,0,0,0,-1.6642,-1.668,-1.6677,-1.6724,-1.6726,-1.6794,-1.6806,-1.6858,-1.6896,-1.6901,-1.6999,-1.7,-1.7001,-1.7005,-1.7028,-1.7046,-1.7052,0,0,-1.6682,-1.6684,-1.6712,-1.6713,-1.6777,-1.6782,-1.6848,-1.6896,-1.6913,-1.697,-1.6973,-1.7002,-1.7005,-1.7029,-1.7091,-1.7096,0,0,0,-1.672,-1.674,-1.6761,-1.6795,-1.6832,-1.6864,-1.6903,-1.6921,-1.697,-1.6939,-1.7017,-1.702,-1.7034,-1.7043,-1.7047,-1.7061,-1.7003,-1.7003,-1.7003,-1.6757,-1.6776,-1.6824,-1.6854,-1.6887,-1.6927,-1.6956,-1.6987,-1.6998,-1.7016,-1.7033,-1.7069,-1.7079,-1.7082,-1.7095,-1.7044,-1.7044,-1.7044,-1.7044,-1.6817,-1.6849,-1.6861,-1.6912,-1.6932,-1.6976,-1.7016,-1.7022,-1.7066,-1.7057,-1.7071,-1.706,-1.7086,-1.7099,-1.7045,-1.7045,-1.7045,-1.7045,-1.7045,-1.6843,-1.6862,-1.6882,-1.6933,-1.6971,-1.7,-1.7041,-1.7059,-1.7076,-1.709,-1.711,-1.711,-1.7112,-1.7098,-1.7098,-1.7098,-1.7098,-1.7098,-1.7098,-1.6863,-1.6885,-1.6917,-1.6959,-1.6983,-1.7017,-1.7057,-1.7082,-1.7114,-1.7124,-1.7124,-1.7133,-1.7085,-1.7073,-1.71,-1.71,-1.71,-1.71,-1.7099,-1.6917,-1.6907,-1.6956,-1.698,-1.7031,-1.7067,-1.7089,-1.7137,-1.7161,-1.718,-1.7187,-1.7148,-1.7152,-1.7149,-1.7139,-1.7182,-1.7182,-1.7182,-1.7182,-1.6939,-1.6942,-1.6996,-1.7034,-1.7072,-1.7096,-1.7153,-1.7184,-1.7216,-1.7232,-1.7228,-1.7216,-1.7212,-1.7218,-1.7214,-1.7205,-1.7264,-1.7264,-1.7264,-1.6974,-1.6981,-1.7025,-1.7054,-1.7095,-1.7129,-1.7183,-1.7226,-1.726,-1.7267,-1.7244,-1.7241,-1.7222,-1.7214,-1.7221,-1.7214,-1.7197,0,0]},{"header":{"parameterUnit":"m.s-1","parameterCategory":1,"la1":30.2992,"la2":30.254,"lo1":-89.0895,"lo2":-89.0443,"dy":0.0025,"dx":0.0025,"nx":19,"ny":19,"refTime":"2026-04-24T09:00:00:Z","depth":0,"parameterNumber":3,"parameterNumberName":"V-component_of_WINDS"},"data":[0,0,0,3.5004,3.5006,3.507,3.5071,3.5165,3.5166,0,0,0,0,0,0,0,0,0,0,0,3.4994,3.4995,3.5004,3.5006,3.507,3.5071,3.5165,3.5166,0,0,0,0,0,0,0,0,0,0,0,3.4994,3.4995,3.4996,3.5006,3.507,3.5071,3.5165,3.5111,0,0,0,0,0,0,0,0,0,0,3.5046,3.5047,3.4995,3.4996,3.5007,3.507,3.5071,3.5109,3.5115,3.5142,0,3.517,0,3.517,3.5174,3.5174,0,0,0,3.4998,3.5042,3.5051,3.4996,3.5007,3.507,3.5039,3.5112,3.5119,3.515,3.5171,3.5174,3.5171,3.5174,3.5175,3.5358,3.5359,0,0,3.4995,3.5011,3.5046,3.5056,3.5049,3.5037,3.5041,3.5116,3.5139,3.5172,3.5176,3.5173,3.5175,3.5176,3.5357,3.5358,0,0,0,3.499,3.5008,3.5015,3.5053,3.5063,3.5039,3.5044,3.5136,3.5137,3.5177,3.5174,3.5176,3.5177,3.5355,3.5357,3.5431,0,0,0,3.4987,3.5005,3.5014,3.5024,3.5062,3.5101,3.5063,3.5132,3.514,3.5174,3.5176,3.5178,3.5354,3.5356,3.5426,3.5462,0,0,0,3.4987,3.5005,3.5018,3.5025,3.5054,3.5099,3.5105,3.5133,3.5138,3.5174,3.5178,3.5353,3.5356,3.5421,3.5455,3.5513,0,0,0,3.4991,3.5083,3.5019,3.5121,3.5053,3.5146,3.5104,3.5172,3.5211,3.5176,3.5354,3.5357,3.542,3.5451,3.5509,3.5564,3.5589,0,0,3.5116,3.5099,3.5157,3.5102,3.521,3.5134,3.5252,3.5273,3.5262,3.5326,3.533,3.5427,3.5455,3.5512,3.5727,3.5747,0,0,0,3.5202,3.5244,3.5269,3.5308,3.5327,3.5345,3.5346,3.5354,3.5407,3.5299,3.5465,3.548,3.5513,3.5539,3.5556,3.5582,3.537,3.537,3.537,3.5401,3.5382,3.5476,3.5464,3.5502,3.5502,3.553,3.554,3.551,3.5549,3.5567,3.57,3.5731,3.5743,3.5771,3.5597,3.5597,3.5597,3.5597,3.5581,3.5636,3.5593,3.5669,3.5647,3.571,3.5713,3.5689,3.5743,3.5685,3.5713,3.565,3.5766,3.5789,3.5603,3.5602,3.5601,3.5601,3.56,3.5707,3.573,3.5738,3.579,3.5832,3.5817,3.587,3.5849,3.5829,3.5857,3.5872,3.5871,3.5865,3.5866,3.5867,3.5867,3.5867,3.5868,3.5868,3.5835,3.5841,3.5889,3.5916,3.5936,3.5961,3.5961,3.598,3.5995,3.5975,3.5975,3.5939,3.5782,3.5741,3.5875,3.5874,3.5873,3.5872,3.5872,3.6021,3.5975,3.605,3.607,3.6098,3.6139,3.6112,3.6152,3.6165,3.6191,3.615,3.6038,3.6018,3.6004,3.597,3.6155,3.6155,3.6155,3.6155,3.6126,3.6114,3.6184,3.6218,3.6249,3.6231,3.6313,3.6313,3.6305,3.6311,3.6282,3.6236,3.6223,3.6211,3.6193,3.616,3.639,3.639,3.639,3.6238,3.6228,3.6303,3.6295,3.6315,3.6331,3.6407,3.6446,3.6428,3.6399,3.6315,3.6305,3.6231,3.6208,3.6175,3.6148,3.6088,0,0]}]]